DEKKL EDDL-EDDL

Flight info

Callsign DEKKL
Flight time 0h 12m
Altitude 1000
Route DCT
Aircraft DA40/L-SDFGRWY/LB1

Departure

Time 2026-05-07 18:50
Airport Düsseldorf Airport (EDDL)

Arrival

Time 2026-05-07 19:03
Airport Düsseldorf Airport (EDDL)
Time Latitude Longitude Altitude Speed Heading
2026-05-07 18:37 51.27613 6.75271 -21 ft 0 kts 242°
2026-05-07 18:43 51.27612 6.75270 115 ft 0 kts 241°
2026-05-07 18:43 51.27608 6.75247 115 ft 5 kts 258°
2026-05-07 18:44 51.27610 6.75205 114 ft 3 kts 292°
2026-05-07 18:44 51.27638 6.75183 114 ft 6 kts
2026-05-07 18:44 51.27697 6.75194 114 ft 12 kts
2026-05-07 18:44 51.27755 6.75233 116 ft 5 kts 51°
2026-05-07 18:45 51.27779 6.75284 117 ft 7 kts 55°
2026-05-07 18:45 51.27797 6.75320 118 ft 4 kts 47°
2026-05-07 18:45 51.27827 6.75358 119 ft 6 kts 353°
2026-05-07 18:45 51.27870 6.75326 118 ft 7 kts 333°
2026-05-07 18:46 51.27897 6.75303 118 ft 0 kts 332°
2026-05-07 18:48 51.27934 6.75275 118 ft 12 kts 336°
2026-05-07 18:48 51.28000 6.75285 118 ft 10 kts 49°
2026-05-07 18:49 51.28105 6.75506 121 ft 42 kts 52°
2026-05-07 18:49 51.28340 6.75993 168 ft 63 kts 52°
2026-05-07 18:49 51.28626 6.76548 306 ft 67 kts 54°
2026-05-07 18:49 51.28909 6.77145 458 ft 70 kts 53°
2026-05-07 18:50 51.29204 6.77781 589 ft 72 kts 51°
2026-05-07 18:50 51.29671 6.78068 734 ft 79 kts 355°
2026-05-07 18:50 51.30164 6.77625 869 ft 85 kts 323°
2026-05-07 18:50 51.30566 6.76913 1007 ft 91 kts 294°
2026-05-07 18:51 51.30564 6.75874 1135 ft 99 kts 248°
2026-05-07 18:51 51.30182 6.74945 1197 ft 106 kts 233°
2026-05-07 18:51 51.29719 6.73956 1200 ft 115 kts 233°
2026-05-07 18:51 51.29304 6.72839 1195 ft 120 kts 257°
2026-05-07 18:52 51.29413 6.71549 1195 ft 119 kts 302°
2026-05-07 18:52 51.30038 6.70758 1197 ft 116 kts 347°
2026-05-07 18:52 51.30807 6.70907 1198 ft 113 kts 32°
2026-05-07 18:52 51.31263 6.71888 1197 ft 113 kts 76°
2026-05-07 18:53 51.31127 6.73108 1197 ft 117 kts 120°
2026-05-07 18:53 51.30455 6.73833 1199 ft 122 kts 166°
2026-05-07 18:53 51.29623 6.73608 1200 ft 125 kts 210°
2026-05-07 18:53 51.29093 6.72535 1201 ft 126 kts 253°
2026-05-07 18:54 51.29140 6.71187 1201 ft 122 kts 297°
2026-05-07 18:54 51.29706 6.70301 1286 ft 109 kts 340°
2026-05-07 18:54 51.30439 6.70161 1301 ft 108 kts 10°
2026-05-07 18:54 51.31147 6.70480 1387 ft 103 kts 25°
2026-05-07 18:55 51.31575 6.71399 1323 ft 112 kts 77°
2026-05-07 18:55 51.31422 6.72616 1315 ft 117 kts 116°
2026-05-07 18:55 51.30845 6.73551 1259 ft 125 kts 148°
2026-05-07 18:55 51.29953 6.73877 1028 ft 140 kts 184°
2026-05-07 18:56 51.29214 6.73188 1083 ft 116 kts 227°
2026-05-07 18:56 51.28761 6.72194 1043 ft 105 kts 234°
2026-05-07 18:56 51.28214 6.71583 908 ft 90 kts 187°
2026-05-07 18:56 51.27657 6.71826 776 ft 84 kts 137°
2026-05-07 18:57 51.27322 6.72594 628 ft 86 kts 111°
2026-05-07 18:57 51.27308 6.73505 474 ft 82 kts 73°
2026-05-07 18:57 51.27546 6.74264 351 ft 77 kts 59°
2026-05-07 18:57 51.27869 6.74997 232 ft 85 kts 52°
2026-05-07 18:58 51.28222 6.75750 157 ft 83 kts 53°
2026-05-07 18:58 51.28557 6.76461 162 ft 76 kts 52°
2026-05-07 18:58 51.28884 6.77126 151 ft 75 kts 56°
2026-05-07 18:58 51.29203 6.77786 149 ft 75 kts 52°
2026-05-07 18:59 51.29506 6.78446 215 ft 69 kts 54°
2026-05-07 18:59 51.29794 6.79058 360 ft 72 kts 50°
2026-05-07 18:59 51.30236 6.79340 552 ft 76 kts 352°
2026-05-07 18:59 51.30698 6.78833 681 ft 85 kts 320°
2026-05-07 19:00 51.31109 6.78086 785 ft 93 kts 306°
2026-05-07 19:00 51.31325 6.77120 934 ft 96 kts 269°
2026-05-07 19:00 51.31063 6.76166 1118 ft 96 kts 226°
2026-05-07 19:00 51.30566 6.75365 1193 ft 110 kts 221°
2026-05-07 19:01 51.30034 6.74372 1200 ft 124 kts 231°
2026-05-07 19:01 51.29484 6.73275 1254 ft 124 kts 229°
2026-05-07 19:01 51.28890 6.72203 978 ft 125 kts 216°
2026-05-07 19:01 51.28118 6.71961 789 ft 106 kts 159°
2026-05-07 19:02 51.27614 6.72727 475 ft 99 kts 111°
2026-05-07 19:02 51.27509 6.73713 361 ft 83 kts 92°
2026-05-07 19:02 51.27638 6.74513 292 ft 75 kts 59°
2026-05-07 19:02 51.27940 6.75146 175 ft 65 kts 54°
2026-05-07 19:03 51.28184 6.75654 126 ft 48 kts 54°
2026-05-07 19:03 51.28305 6.75912 123 ft 7 kts 48°
2026-05-07 19:03 51.28296 6.75968 123 ft 6 kts 135°
2026-05-07 19:03 51.28256 6.76024 121 ft 10 kts 143°
2026-05-07 19:04 51.28211 6.76068 122 ft 6 kts 148°
2026-05-07 19:04 51.28166 6.76096 120 ft 5 kts 215°
2026-05-07 19:04 51.28128 6.76014 123 ft 12 kts 232°
2026-05-07 19:04 51.28075 6.75910 121 ft 14 kts 233°
2026-05-07 19:05 51.28030 6.75814 122 ft 10 kts 230°
2026-05-07 19:05 51.27992 6.75732 123 ft 9 kts 236°
2026-05-07 19:05 51.27949 6.75643 123 ft 11 kts 231°
2026-05-07 19:05 51.27901 6.75540 119 ft 9 kts 232°
2026-05-07 19:06 51.27869 6.75474 121 ft 9 kts 234°
2026-05-07 19:06 51.27848 6.75429 120 ft 1 kts 227°
2026-05-07 19:06 51.27830 6.75392 119 ft 5 kts 234°
2026-05-07 19:07 51.27793 6.75317 118 ft 12 kts 231°
2026-05-07 19:07 51.27728 6.75207 115 ft 13 kts 204°
2026-05-07 19:07 51.27630 6.75198 114 ft 11 kts 150°
2026-05-07 19:07 51.27571 6.75270 115 ft 9 kts 157°
2026-05-07 19:08 51.27535 6.75318 116 ft 5 kts 100°
2026-05-07 19:08 51.27535 6.75337 116 ft 0 kts 69°